Content
SEND FEEDBACK

Daily
Averages
Monthly
Summary
India

TRIVANDRUM, INDIA


Home > Asia > India
Elevation: 205 feet     Latitude: 08 29N     Longitude: 076 57E

WEATHER
 
SELECT A DAY
Number of Records: 112,580;   Date Range: 7/1/96 - 8/31/14
 
SHARE

PRINT THIS DATA

[ ← Previous Day ]
WEATHER ALMANAC - MARCH 8, 2013
[ Next Day → ]
[ °C ]   °F
Weather ElementAverageHighLow
Temperature81.9 °F89.6 °F (11:10 am) (4:00 pm)
Dewpoint72.3 °F77 °F (11:10 am) (7:00 pm)
Humidity72.2 %79 % (4:10 am)66 % (10:10 am)
Barometer29.86 in29.92 in (9:10 am)29.80 in (3:10 am)
Wind Speed3 mph8.1 mph (12:40 pm)
Weather ElementAverage
Visibility2.9 mi
Wind DirectionSSW (192.5 °)

Weather ElementTotal
Precipitation---
Heating Degree Days20.2 (Base 65)
Averaged from 28 records on March 8, 2013
WEATHER CONDITIONS BREAKOUT
WIND DIRECTION BREAKOUT
WEATHER BY HOUR - MARCH 8, 2013
[ °C ]   °F
Local TimeTemperatureDewpointHumidityBarometerVisibilityWind DirectionWind SpeedGust SpeedPrecipitationEventsConditions
3:10 AM82.4 °F73.4 °F74 %29.80 in2.5 miCalmHaze
3:40 AM82.4 °F73.4 °F74 %29.80 in2.5 miNNW (340°)2.3 mphHaze
4:10 AM80.6 °F73.4 °F79 %29.80 in2.5 miWest (270°)2.3 mphHaze
4:40 AM80.6 °F73.4 °F79 %29.80 in2.5 miCalmHaze
5:10 AM80.6 °F73.4 °F79 %29.80 in2.5 miCalmHaze
5:40 AM80.6 °F73.4 °F79 %29.83 in2.5 miNNW (340°)2.3 mphHaze
6:10 AM80.6 °F73.4 °F79 %29.83 in2.5 miCalmHaze
7:10 AM80.6 °F73.4 °F79 %29.86 in2.5 miCalmHaze
8:10 AM84.2 °F75.2 °F74 %29.89 in2.5 miCalmHaze
9:10 AM86.0 °F75.2 °F70 %29.92 in3.7 miNW (310°)3.5 mphScattered Clouds
10:10 AM87.8 °F75.2 °F66 %29.92 in3.7 miWSW (250°)4.6 mphScattered Clouds
11:10 AM89.6 °F77.0 °F66 %29.92 in3.7 miNW (310°)5.8 mphScattered Clouds
12:10 PM89.6 °F77.0 °F66 %29.89 in3.7 miNW (310°)5.8 mphScattered Clouds
12:40 PM89.6 °F77.0 °F66 %29.86 in3.7 miNNW (330°)8.1 mphScattered Clouds
1:10 PM89.6 °F77.0 °F66 %29.86 in3.7 miNW (320°)5.8 mphScattered Clouds
2:10 PM87.8 °F77.0 °F70 %29.83 in3.7 miNW (320°)6.9 mphScattered Clouds
3:10 PM87.8 °F75.2 °F66 %29.80 in5.0 miNW (320°)6.9 mphScattered Clouds
4:00 PM0.0 °F0.0 °F29.86 in2.5 miNNW (330°)3.5 mphThunderstormThunderstorm
5:10 PM87.8 °F75.2 °F66 %29.80 in3.7 miNNW (330°)5.8 mphThunderstormThunderstorm
6:10 PM87.8 °F75.2 °F66 %29.83 in3.7 miNW (310°)4.6 mphThunderstormThunderstorm
7:40 PM86.0 °F75.2 °F70 %29.89 in2.5 miNNW (330°)4.6 mphThunderstormThunderstorm
8:10 PM86.0 °F75.2 °F70 %29.89 in2.5 miNNW (330°)5.8 mphThunderstormThunderstorm
8:40 PM86.0 °F75.2 °F70 %29.89 in2.5 miNNW (340°)5.8 mphThunderstormThunderstorm
9:40 PM84.2 °F75.2 °F74 %29.92 in1.9 miCalmThunderstormThunderstorm
10:10 PM84.2 °F75.2 °F74 %29.92 in1.9 miCalmHaze
10:40 PM84.2 °F75.2 °F74 %29.92 in1.9 miCalmThunderstormThunderstorm
11:10 PM84.2 °F75.2 °F74 %29.92 in2.5 miCalmThunderstormThunderstorm
11:40 PM82.4 °F75.2 °F79 %29.92 in2.5 miCalmThunderstormThunderstorm
Hourly data recorded from VOTV, located miles away from Trivandrum, India







STORIES FROM OUR PARTNERS